TimeEDT,TemperatureF,Dew PointF,Humidity,Sea Level PressureIn,VisibilityMPH,Wind Direction,Wind SpeedMPH,Gust SpeedMPH,PrecipitationIn,Events,Conditions,WindDirDegrees,DateUTC
12:53 AM,77.0,72.0,84,30.03,1.8,SSE,10.4,-,0.21,Rain,Heavy Rain,150,2013-07-27 04:53:00
1:03 AM,77.0,73.4,89,30.02,0.8,SSE,6.9,-,0.48,Rain,Heavy Rain,150,2013-07-27 05:03:00
1:17 AM,77.0,71.6,83,30.02,2.0,ENE,6.9,-,0.72,Rain,Heavy Rain,70,2013-07-27 05:17:00
1:23 AM,75.2,71.6,89,30.01,4.0,ENE,8.1,-,0.73,Rain,Rain,70,2013-07-27 05:23:00
1:30 AM,75.2,71.6,89,30.01,4.0,ENE,8.1,-,0.78,Rain-Thunderstorm,Thunderstorms and Rain,60,2013-07-27 05:30:00
1:39 AM,77.0,71.6,83,30.01,5.0,NNE,5.8,-,0.81,Rain,Light Rain,30,2013-07-27 05:39:00
1:53 AM,77.0,73.0,88,30.02,9.0,ENE,3.5,-,0.82,Rain,Light Rain,60,2013-07-27 05:53:00
2:07 AM,78.8,73.4,83,29.98,9.0,SE,4.6,-,0.00,,Overcast,130,2013-07-27 06:07:00
2:53 AM,78.1,73.0,84,29.99,9.0,Calm,Calm,-,0.00,,Overcast,0,2013-07-27 06:53:00
3:53 AM,77.0,73.0,88,29.99,6.0,Calm,Calm,-,N/A,,Clear,0,2013-07-27 07:53:00
4:53 AM,75.0,71.1,87,29.99,4.0,Calm,Calm,-,N/A,,Clear,0,2013-07-27 08:53:00
5:53 AM,75.9,72.0,87,29.98,5.0,Calm,Calm,-,N/A,,Clear,0,2013-07-27 09:53:00
6:44 AM,75.2,71.6,89,29.98,4.0,Calm,Calm,-,N/A,,Scattered Clouds,0,2013-07-27 10:44:00
6:53 AM,75.9,72.0,87,29.99,4.0,Calm,Calm,-,N/A,,Scattered Clouds,0,2013-07-27 10:53:00
7:20 AM,75.2,71.6,89,29.98,2.0,Calm,Calm,-,N/A,,Haze,0,2013-07-27 11:20:00
7:53 AM,78.1,73.9,87,30.00,2.0,Calm,Calm,-,N/A,,Haze,0,2013-07-27 11:53:00
8:53 AM,79.0,73.9,84,30.02,2.0,South,3.5,-,N/A,,Haze,190,2013-07-27 12:53:00
9:38 AM,80.6,75.2,84,30.01,2.0,Calm,Calm,-,N/A,,Haze,0,2013-07-27 13:38:00
9:53 AM,80.1,73.9,81,30.03,3.0,Calm,Calm,-,N/A,,Haze,0,2013-07-27 13:53:00
10:27 AM,84.2,75.2,74,30.00,7.0,Calm,Calm,-,N/A,,Mostly Cloudy,0,2013-07-27 14:27:00
10:43 AM,86.0,75.2,70,30.00,8.0,Calm,Calm,-,N/A,,Mostly Cloudy,0,2013-07-27 14:43:00
10:53 AM,86.0,75.0,70,30.02,8.0,Calm,Calm,-,N/A,,Mostly Cloudy,0,2013-07-27 14:53:00
11:00 AM,87.8,75.2,66,30.00,9.0,Calm,Calm,-,N/A,,Scattered Clouds,0,2013-07-27 15:00:00
11:53 AM,91.0,73.0,55,30.01,10.0,Variable,3.5,-,N/A,,Scattered Clouds,0,2013-07-27 15:53:00
12:53 PM,93.0,72.0,50,29.99,10.0,Calm,Calm,-,N/A,,Scattered Clouds,0,2013-07-27 16:53:00
1:53 PM,93.9,68.0,43,29.97,10.0,Variable,3.5,-,N/A,,Scattered Clouds,0,2013-07-27 17:53:00
2:53 PM,91.0,68.0,47,29.95,10.0,Variable,4.6,-,N/A,,Scattered Clouds,0,2013-07-27 18:53:00
3:53 PM,95.0,66.9,40,29.94,10.0,Variable,4.6,-,N/A,,Clear,0,2013-07-27 19:53:00
4:53 PM,95.0,64.9,37,29.92,10.0,Variable,4.6,-,N/A,,Clear,0,2013-07-27 20:53:00
5:53 PM,93.9,66.0,40,29.94,10.0,NW,4.6,-,N/A,,Partly Cloudy,320,2013-07-27 21:53:00
6:53 PM,88.0,70.0,55,29.94,10.0,Calm,Calm,-,N/A,,Clear,0,2013-07-27 22:53:00
7:53 PM,84.0,73.9,72,29.95,10.0,Calm,Calm,-,0.00,,Scattered Clouds,0,2013-07-27 23:53:00
8:53 PM,82.0,73.9,76,29.97,10.0,Calm,Calm,-,N/A,,Clear,0,2013-07-28 00:53:00
9:53 PM,82.0,73.0,74,29.98,10.0,Calm,Calm,-,0.00,,Clear,0,2013-07-28 01:53:00
10:53 PM,80.1,73.0,79,29.98,10.0,Calm,Calm,-,N/A,,Clear,0,2013-07-28 02:53:00
11:53 PM,79.0,72.0,79,29.97,10.0,Calm,Calm,-,N/A,,Clear,0,2013-07-28 03:53:00